Weather History for Gambell, AK

Change the Weather History Date:

Friday, July 26, 2013

  Actual Average Record
Temperature  
Mean Temperature 50 °F -  
Max Temperature 55 °F 48 °F 59 °F (2004)
Min Temperature 46 °F 42 °F 39 °F (1996)
Degree Days  
Heating Degree Days 14    
Moisture  
Dew Point 47 °F    
Average Humidity 91    
Maximum Humidity 100    
Minimum Humidity 82    
Precipitation  
Precipitation 0.00 in - - ()
Sea Level Pressure  
Sea Level Pressure 30.23 in    
Wind  
Wind Speed 12 mph (SSW)    
Max Wind Speed 18 mph    
Max Gust Speed 16 mph    
Visibility 5 miles    
Events      
Averages and records for this station are not official NWS values.
T = Trace of Precipitation, MM = Missing Value Source: NWS Daily Summary

Daily Weather History Graph

Daily Weather History Graph

Search for Another Location

Airport:

Trip Planner

Search our weather history database for the weather conditions in past years. The results will help you decide how hot, cold, wet, or windy it might be!

Date:

Astronomy

Jul. 26, 2013 Rise Set
Actual Time 6:20 AM AKDT 12:44 AM AKDT
Civil Twilight 4:36 AM AKDT 2:23 AM AKDT
Nautical Twilight Sun does not rise Sun does not rise
Astronomical Twilight Sun does not rise Sun does not rise
Moon 12:33 AM AKDT (7/26) 1:26 PM AKDT (7/26)
Length of Visible Light 21h 46m
Length of Day
18h 23m
Waning Gibbous, 79% of the Moon is Illuminated
Jul 26
Waning Gibbous
Jul 29
Last Quarter
Aug 6
New
Aug 14
First Quarter
Aug 20
Full

Hourly Weather History & Observations

Time (AKDT) Temp. Windchill Dew Point Humidity Pressure Visibility Wind Dir Wind Speed Gust Speed Precip Events Conditions
12:16 AM 46.4 °F 41.1 °F 46.4 °F 100% 30.20 in 0.5 mi SSW 11.5 mph - N/A   Overcast
12:36 AM 46.4 °F 40.4 °F 46.4 °F 100% 30.20 in 0.2 mi SSW 13.8 mph - N/A   Overcast
12:56 AM 46.4 °F 40.7 °F 46.4 °F 100% 30.21 in 0.5 mi SW 12.7 mph - N/A   Overcast
1:16 AM 48.2 °F - 46.4 °F 93% 30.21 in 0.2 mi SSW 13.8 mph - N/A   Overcast
1:36 AM 48.2 °F - 46.4 °F 93% 30.21 in 0.5 mi SSW 12.7 mph - N/A   Overcast
1:56 AM 46.4 °F 41.5 °F 46.4 °F 100% 30.21 in 1.0 mi SSW 10.4 mph - N/A   Overcast
2:16 AM 46.4 °F 41.5 °F 46.4 °F 100% 30.21 in 0.5 mi SSW 10.4 mph - N/A   Overcast
2:36 AM 48.2 °F - 46.4 °F 93% 30.21 in 0.2 mi SSW 10.4 mph - N/A   Overcast
2:56 AM 48.2 °F - 46.4 °F 93% 30.21 in 0.2 mi SSW 12.7 mph - N/A   Overcast
3:16 AM 48.2 °F - 46.4 °F 93% 30.21 in 0.2 mi SSW 11.5 mph - N/A   Overcast
3:36 AM 48.2 °F - 46.4 °F 93% 30.21 in 0.2 mi SSW 11.5 mph - N/A   Overcast
3:56 AM 48.2 °F - 46.4 °F 93% 30.21 in 0.2 mi SSW 12.7 mph - N/A   Overcast
4:16 AM 48.2 °F - 46.4 °F 93% 30.21 in 0.2 mi SSW 12.7 mph - N/A   Overcast
4:36 AM 48.2 °F - 46.4 °F 93% 30.21 in 0.2 mi SSW 12.7 mph - N/A   Overcast
4:56 AM 48.2 °F - 46.4 °F 93% 30.21 in 0.2 mi South 11.5 mph - N/A   Overcast
5:16 AM 48.2 °F - 46.4 °F 93% 30.21 in 0.2 mi South 10.4 mph - N/A   Overcast
5:36 AM 48.2 °F - 46.4 °F 93% 30.21 in 0.2 mi South 10.4 mph - N/A   Overcast
5:56 AM 48.2 °F - 46.4 °F 93% 30.21 in 0.2 mi South 10.4 mph - N/A   Overcast
6:16 AM 48.2 °F - 46.4 °F 93% 30.21 in 0.2 mi South 9.2 mph - N/A   Overcast
6:36 AM 48.2 °F - 46.4 °F 93% 30.21 in 0.2 mi South 9.2 mph - N/A   Overcast
6:56 AM 48.2 °F - 46.4 °F 93% 30.21 in 0.2 mi South 9.2 mph - N/A   Overcast
7:16 AM 48.2 °F - 46.4 °F 93% 30.21 in 0.5 mi South 8.1 mph - N/A   Overcast
7:36 AM 48.2 °F - 46.4 °F 93% 30.21 in 0.2 mi South 8.1 mph - N/A   Overcast
7:56 AM 46.4 °F 41.5 °F 46.4 °F 100% 30.22 in 0.2 mi SSW 10.4 mph - N/A   Overcast
8:16 AM 48.2 °F - 46.4 °F 93% 30.22 in 0.2 mi SSW 12.7 mph - N/A   Overcast
8:36 AM 46.4 °F 41.1 °F 46.4 °F 100% 30.22 in 0.2 mi South 11.5 mph - N/A   Overcast
8:56 AM 48.2 °F - 46.4 °F 93% 30.23 in 0.2 mi SSW 13.8 mph - N/A   Overcast
9:16 AM 48.2 °F - 46.4 °F 93% 30.23 in 0.2 mi South 11.5 mph - N/A   Overcast
9:36 AM 48.2 °F - 46.4 °F 93% 30.24 in 0.2 mi South 11.5 mph - N/A   Overcast
9:56 AM 48.2 °F - 46.4 °F 93% 30.24 in 0.5 mi South 10.4 mph - N/A   Overcast
10:16 AM 48.2 °F - 46.4 °F 93% 30.23 in 0.2 mi South 9.2 mph - N/A   Overcast
10:36 AM 48.2 °F - 46.4 °F 93% 30.24 in 0.2 mi South 9.2 mph - N/A   Overcast
10:56 AM 48.2 °F - 46.4 °F 93% 30.24 in 0.2 mi South 9.2 mph - N/A   Overcast
11:16 AM 48.2 °F - 46.4 °F 93% 30.24 in 0.5 mi South 10.4 mph - N/A   Overcast
11:36 AM 50.0 °F - 48.2 °F 94% 30.24 in 0.2 mi South 9.2 mph - N/A   Overcast
11:56 AM 51.8 °F - 50.0 °F 94% 30.24 in 0.2 mi South 10.4 mph - N/A   Overcast
12:16 PM 51.8 °F - 50.0 °F 94% 30.24 in 1.8 mi South 10.4 mph - N/A   Overcast
12:36 PM 51.8 °F - 50.0 °F 94% 30.24 in 10.0 mi South 9.2 mph - N/A   Overcast
12:56 PM 51.8 °F - 50.0 °F 94% 30.24 in 10.0 mi South 10.4 mph - N/A   Overcast
1:16 PM 51.8 °F - 48.2 °F 88% 30.24 in 10.0 mi South 9.2 mph - N/A   Overcast
1:36 PM 51.8 °F - 48.2 °F 88% 30.24 in 10.0 mi South 9.2 mph - N/A   Overcast
1:56 PM 51.8 °F - 50.0 °F 94% 30.24 in 10.0 mi South 11.5 mph - N/A   Overcast
2:16 PM 51.8 °F - 48.2 °F 88% 30.24 in 10.0 mi South 11.5 mph - N/A   Scattered Clouds
2:36 PM 51.8 °F - 48.2 °F 88% 30.25 in 10.0 mi South 10.4 mph - N/A   Clear
2:56 PM 51.8 °F - 48.2 °F 88% 30.25 in 10.0 mi South 11.5 mph - N/A   Clear
3:16 PM 51.8 °F - 48.2 °F 88% 30.25 in 10.0 mi South 10.4 mph - N/A   Clear
3:36 PM 51.8 °F - 48.2 °F 88% 30.25 in 10.0 mi South 10.4 mph - N/A   Partly Cloudy
3:56 PM 51.8 °F - 48.2 °F 88% 30.25 in 10.0 mi South 10.4 mph - N/A   Clear
4:16 PM 51.8 °F - 48.2 °F 88% 30.25 in 10.0 mi South 11.5 mph - N/A   Scattered Clouds
4:36 PM 53.6 °F - 48.2 °F 82% 30.24 in 10.0 mi South 12.7 mph - N/A   Mostly Cloudy
4:56 PM 51.8 °F - 48.2 °F 88% 30.24 in 10.0 mi South 11.5 mph - N/A   Scattered Clouds
5:16 PM 51.8 °F - 48.2 °F 88% 30.25 in 9.0 mi SSW 11.5 mph - N/A   Mostly Cloudy
5:36 PM 51.8 °F - 48.2 °F 88% 30.25 in 7.0 mi South 11.5 mph - N/A   Overcast
5:56 PM 51.8 °F - 48.2 °F 88% 30.25 in 10.0 mi South 10.4 mph - N/A   Mostly Cloudy
6:16 PM 51.8 °F - 46.4 °F 82% 30.25 in 10.0 mi SSW 13.8 mph - N/A   Scattered Clouds
6:36 PM 53.6 °F - 48.2 °F 82% 30.24 in 10.0 mi SSW 12.7 mph - N/A   Partly Cloudy
6:56 PM 55.4 °F - 50.0 °F 82% 30.25 in 10.0 mi South 12.7 mph - N/A   Partly Cloudy
7:16 PM 53.6 °F - 48.2 °F 82% 30.25 in 10.0 mi South 13.8 mph - N/A   Mostly Cloudy
7:36 PM 53.6 °F - 48.2 °F 82% 30.25 in 10.0 mi SSW 12.7 mph - N/A   Overcast
7:56 PM 53.6 °F - 48.2 °F 82% 30.24 in 10.0 mi SSW 16.1 mph - N/A   Scattered Clouds
8:16 PM 51.8 °F - 46.4 °F 82% 30.24 in 10.0 mi SSW 15.0 mph - N/A   Clear
8:36 PM 51.8 °F - 46.4 °F 82% 30.24 in 10.0 mi SSW 13.8 mph - N/A   Partly Cloudy
8:56 PM 51.8 °F - 48.2 °F 88% 30.23 in 10.0 mi SSW 16.1 mph - N/A   Clear
9:16 PM 51.8 °F - 46.4 °F 82% 30.23 in 10.0 mi SSW 11.5 mph - N/A   Partly Cloudy
9:36 PM 51.8 °F - 46.4 °F 82% 30.23 in 9.0 mi SSW 13.8 mph - N/A   Mostly Cloudy
9:56 PM 51.8 °F - 48.2 °F 88% 30.23 in 9.0 mi South 8.1 mph - N/A   Scattered Clouds
10:16 PM 51.8 °F - 48.2 °F 88% 30.23 in 10.0 mi SSW 12.7 mph 16.1 mph N/A   Mostly Cloudy
10:36 PM 51.8 °F - 48.2 °F 88% 30.23 in 10.0 mi South 11.5 mph - N/A   Overcast
10:56 PM 51.8 °F - 46.4 °F 82% 30.23 in 7.0 mi SSW 9.2 mph - N/A   Mostly Cloudy
11:16 PM 50.0 °F - 46.4 °F 87% 30.23 in 9.0 mi SSW 9.2 mph - N/A   Overcast
11:36 PM 53.6 °F - 51.8 °F 94% 30.23 in 10.0 mi SSE 15.0 mph - N/A   Overcast
11:56 PM 53.6 °F - 50.0 °F 88% 30.23 in 10.0 mi SSE 18.4 mph - N/A   Scattered Clouds